Tracking 30685 objects as of 18-Jun-2025
HD Live streaming from Space Station
objects crossing your sky now

STARLINK-2654

Track STARLINK-2654 now!
10-day predictions
STARLINK-2654 is classified as:


NORAD ID: 48454
Int'l Code: 2021-040AC
Perigee: 553.3 km
Apogee: 555.3 km
Inclination: 53.1 °
Period: 95.6 minutes
Semi major axis: 6925 km
RCS: Unknown
Launch date: May 9, 2021
Source: United States (US)
Launch site: AIR FORCE EASTERN TEST RANGE (AFETR)
Your satellite tracking list
Your tracking list is empty




NASA's NSSDC Master Catalog

Two Line Element Set (TLE):
1 48454U 21040AC  25168.64767418  .00007946  00000-0  55143-3 0  9994
2 48454  53.0558 291.4397 0001461  94.0395 266.0761 15.06419904226681
Source of the keplerian elements: AFSPC